This is the latest recevied weather packets stored in our database for station/object MS0SIA-10. If no packets are shown the sender has not sent any weather packets the latest 1 day(s).
| Time | Temp. | Humidity | Pressure | Rain* | Wind** | Luminosity | Snow |
|---|---|---|---|---|---|---|---|
| 1778114083 | 10.56° C | 100% | 1033.6 hPa | - | - | - | - |
| 1778113183 | 10.56° C | 100% | 1033.7 hPa | - | - | - | - |
| 1778112283 | 10.56° C | 100% | 1034.1 hPa | - | - | - | - |
| 1778104182 | 11.67° C | 100% | 1035.3 hPa | - | - | - | - |
| 1778103282 | 11.67° C | 100% | 1035.3 hPa | - | - | - | - |
| 1778102382 | 11.67° C | 100% | 1035.3 hPa | - | - | - | - |
| 1778100582 | 12.22° C | 100% | 1035.6 hPa | - | - | - | - |
| 1778095181 | 12.78° C | 100% | 1036.2 hPa | - | - | - | - |
| 1778094281 | 12.78° C | 100% | 1036.3 hPa | - | - | - | - |
| 1778093381 | 12.78° C | 100% | 1036.4 hPa | - | - | - | - |
| 1778092481 | 12.78° C | 100% | 1036.6 hPa | - | - | - | - |
| 1778091581 | 12.78° C | 100% | 1036.7 hPa | - | - | - | - |
| 1778090681 | 12.78° C | 100% | 1036.8 hPa | - | - | - | - |
| 1778086180 | 12.78° C | 100% | 1037.7 hPa | - | - | - | - |
| 1778084380 | 12.78° C | 100% | 1038.1 hPa | - | - | - | - |
| 1778079208 | 11.67° C | 100% | 1039.1 hPa | - | - | - | - |
| 1778078307 | 11.67° C | 100% | 1039.3 hPa | - | - | - | - |
| 1778077406 | 11.67° C | 100% | 1039.4 hPa | - | - | - | - |
| 1778075605 | 11.11° C | 100% | 1039.7 hPa | - | - | - | - |
| 1778074705 | 11.11° C | 100% | 1039.8 hPa | - | - | - | - |
| 1778069300 | 10° C | 100% | 1040.5 hPa | - | - | - | - |
| 1778067499 | 10° C | 100% | 1040.6 hPa | - | - | - | - |
| 1778066658 | 10° C | 100% | 1040.7 hPa | - | - | - | - |
| 1778062095 | 9.44° C | 100% | 1041.2 hPa | - | - | - | - |
| 1778061198 | 9.44° C | 100% | 1041.2 hPa | - | - | - | - |
* Rain since midnight (hover to see other rain measurements)
** Current wind speed in m/s (hover to see current wind gust speed)